Location: Narrabri
(30.3170°S, 149.7830°E)
Time: 17:02:25
(UTC+10:00)

Tiangong 2 - Visible Passes

Search period start: 25 June 2017 00:00
Search period end: 05 July 2017 00:00
Orbit: 391 x 396 km, 42.8° (Epoch: 24 June)

Date Brightness Start Highest point End Pass type
(mag) Time Alt. Az. Time Alt. Az. Time Alt. Az.
25 Jun 3.0 18:01:22 10° WSW 18:03:57 21° SSW 18:06:07 12° SSE visible
26 Jun 3.8 18:43:44 10° SSW 18:44:34 11° SSW 18:44:34 11° SSW visible
27 Jun 3.5 17:46:01 10° SW 17:47:53 14° SSW 17:49:44 10° SSE visible
02 Jul 3.5 17:55:41 10° S 17:56:49 11° S 17:57:55 10° SSE visible
03 Jul 3.0 18:34:58 10° SSW 18:36:41 19° S 18:36:41 19° S visible
04 Jul 3.1 17:38:35 10° SSW 17:40:39 15° SSE 17:42:43 10° ESE visible
04 Jul 3.8 19:14:43 10° SW 19:15:30 16° SW 19:15:30 16° SW visible
